Home > Weather > Cartagena > Past weeks

Flag for Colombia Past Weather in Cartagena, Colombia — Yesterday and Last 2 Weeks

Now
82 °F

Passing clouds.


Feels Like: 92 °F
Forecast: 81 / 89 °F
Wind: 6 mph from Northeast

Location: Cartagena / Rafael Nunez

Current Time: Jul 29, 2016 at 10:46:43 PM

Latest Report: Jul 29, 2016 at 10:00 PM


Visibility: N/A

Pressure: 29.81 "Hg

Humidity: 89%

Dew Point: 79 °F

Location of CartagenaLocation

Past Weather in Cartagena — Graph

°F

Cartagena Temperature Yesterday

Maximum temperature yesterday: 91 °F (at 11:00 AM)
Minimum temperature yesterday: 75 °F (at 4:00 AM)
Average temperature yesterday: 84 °F

High & Low Weather Summary for the Past Weeks

 TemperatureHumidityPressure
High93 °F (Jul 21, 11:00 AM)100% (Jul 15, 7:00 PM)29.90 "Hg (Jul 15, 7:00 PM)
Low75 °F (Jul 28, 4:00 AM)56% (Jul 24, 12:00 PM)29.69 "Hg (Jul 27, 4:00 PM)
Average84 °F82%29.82 "Hg
* Reported Jul 14 9:00 PM — Jul 29 9:00 PM, Cartagena, Weather by CustomWeather, © 2016

Note: Actual official high and low records may vary slightly from our data, if they occured in-between our weather recording intervals... More about our weather records

Advertising

Cartagena Weather History for the Previous 24 Hours

Scroll right to see more
 ConditionsComfort  
Time TempWeatherWind HumidityBarometerVisibility
9:00 PM
Fri, Jul 29
82 °FPassing clouds.5 mph89%29.79 "HgN/A
8:00 PM82 °FPassing clouds.7 mph84%29.79 "HgN/A
7:00 PM84 °FPassing clouds.8 mph79%29.76 "HgN/A
6:00 PM84 °FPartly sunny.13 mph79%29.74 "HgN/A
5:00 PM86 °FPartly sunny.13 mph75%29.75 "HgN/A
4:00 PM88 °FPartly sunny.13 mph70%29.76 "HgN/A
3:00 PM88 °FPartly sunny.12 mph75%29.77 "HgN/A
2:00 PM88 °FPartly sunny.12 mph75%29.79 "HgN/A
1:00 PM88 °FScattered clouds.12 mph75%29.81 "HgN/A
12:00 PM86 °FPartly sunny.9 mph79%29.84 "HgN/A
11:00 AM88 °FPartly sunny.3 mph66%29.84 "HgN/A
10:00 AM84 °FBroken clouds.2 mph74%29.84 "HgN/A
9:00 AM84 °FPartly sunny.3 mph74%29.83 "HgN/A
8:00 AM84 °FPartly sunny.3 mph74%29.80 "HgN/A
7:00 AM81 °FPartly sunny.10 mph89%29.79 "HgN/A
6:00 AM81 °FScattered clouds.20 mph84%29.79 "HgN/A
5:00 AM81 °FPassing clouds.2 mph94%29.79 "HgN/A
4:00 AM81 °FPassing clouds.6 mph94%29.76 "HgN/A
3:00 AM81 °FPassing clouds.No wind94%29.77 "HgN/A
2:00 AM81 °FPassing clouds.No wind94%29.78 "HgN/A
1:00 AM82 °FPassing clouds.7 mph89%29.79 "HgN/A
12:00 AM82 °FPassing clouds.5 mph89%29.79 "HgN/A
11:00 PM
Thu, Jul 28
82 °FPassing clouds.6 mph89%29.81 "HgN/A
10:00 PM82 °FPassing clouds.6 mph89%29.81 "HgN/A
Weather by CustomWeather, © 2016

See weather overviewHow to use our weather pages